Flag for Germany Weather past 2 weeks in Konstanz, Baden-Württemberg, Germany

Now
72 °F

Scattered clouds.


Feels Like: 77 °F
Forecast: 45 / 71 °F
Wind: 2 mph from Northeast

Location: Konstanz


UV Index: 3 (Moderate)

Visibility: 28 mi


Pressure: 29.98 "Hg

Humidity: 37%

Dew point: 44 °F

Location of KonstanzLocation

Historic Weather in Konstanz

°F

Konstanz temperature yesterday

Maximum temperature yesterday: 66 °F (at 5:00 PM)
Minimum temperature yesterday: 48 °F (at 7:00 AM)
Average temperature yesterday: 56 °F

Past Weeks' High & Low Weather Summary

 TemperatureHumidityPressure
High71 °F (Apr 23, 3:00 PM)96% (Apr 18, 10:00 PM)30.37 "Hg (Apr 18, 10:00 PM)
Low34 °F (Apr 18, 7:00 PM)21% (Apr 17, 6:00 PM)29.62 "Hg (Apr 20, 6:00 PM)
Average51 °F65%30.03 "Hg
* Reported Apr 8 3:00 PM — Apr 23 3:00 PM, Konstanz, Weather by CustomWeather, © 2014

Note: Actual official high and low records may vary slightly from our data, if they occured in-between our weather recording intervals... More about our weather records

Advertising

Historic Weather Conditions — Data for Previous 24 hours

 ConditionsComfort  
Time TempWeatherWind HumidityBarometerVisibility
3:00 PM
Apr 23
71 °FPartly sunny.2 mph39%30.00 "Hg25 mi
2:00 PM66 °FPartly sunny.2 mph49%30.03 "Hg25 mi
1:00 PM65 °FPartly sunny.1 mph54%30.06 "Hg25 mi
12:00 PM60 °FPartly sunny.2 mph62%30.09 "Hg22 mi
11:00 AM57 °FPartly sunny.2 mph70%30.10 "Hg19 mi
10:00 AM56 °FScattered clouds.1 mph74%30.10 "Hg19 mi
9:00 AM53 °FPartly sunny.1 mph81%30.11 "Hg16 mi
8:00 AM48 °FScattered clouds.1 mph90%30.11 "Hg14 mi
7:00 AM45 °FPassing clouds.2 mph94%30.11 "Hg14 mi
6:00 AM46 °FPassing clouds.1 mph91%30.10 "Hg11 mi
5:00 AM46 °FClear.No wind92%30.09 "Hg15 mi
4:00 AM47 °FClear.1 mph89%30.08 "Hg19 mi
3:00 AM47 °FClear.1 mph87%30.06 "Hg22 mi
2:00 AM50 °FClear.2 mph82%30.05 "Hg22 mi
1:00 AM50 °FClear.1 mph85%30.03 "Hg28 mi
12:00 AM51 °FPassing clouds.2 mph78%30.02 "Hg28 mi
11:00 PM
Apr 22
53 °FClear.1 mph71%29.99 "Hg37 mi
10:00 PM55 °FClear.3 mph62%29.98 "Hg43 mi
9:00 PM57 °FPassing clouds.2 mph59%29.95 "Hg28 mi
8:00 PM59 °FScattered clouds.1 mph59%29.92 "Hg31 mi
7:00 PM61 °FPassing clouds.2 mph52%29.90 "Hg28 mi
6:00 PM65 °FScattered clouds.2 mph48%29.88 "Hg31 mi
5:00 PM66 °FScattered clouds.2 mph48%29.87 "Hg28 mi
4:00 PM66 °FScattered clouds.2 mph49%29.87 "Hg28 mi
Weather by CustomWeather, © 2014

See weather overview